Location: Montr�al
(45.5000°N, 73.5830°W)
Time: 14:50:43
(UTC-05:00)

ISS - Visible Passes

Search period start: 23 November 2014 00:00
Search period end: 03 December 2014 00:00
Orbit: 408 x 417 km, 51.6° (Epoch: 23 November)

Date Brightness Start Highest point End Pass type
(mag) Time Alt. Az. Time Alt. Az. Time Alt. Az.
23 Nov -2.6 05:19:38 37° NNW 05:20:18 43° NNE 05:23:29 10° E visible
24 Nov -0.9 04:32:00 22° ENE 04:32:00 22° ENE 04:33:31 10° E visible
24 Nov -3.2 06:04:49 16° WNW 06:07:17 64° SSW 06:10:34 10° SE visible
25 Nov -3.4 05:17:10 67° NW 05:17:32 80° NNE 05:20:50 10° ESE visible
26 Nov -0.8 04:29:31 22° E 04:29:31 22° E 04:30:54 10° ESE visible
26 Nov -2.0 06:02:20 17° W 06:04:09 27° SW 06:07:00 10° SSE visible
27 Nov -2.7 05:14:42 44° SSW 05:14:42 44° SSW 05:17:33 10° SE visible
28 Nov -0.4 04:27:05 16° SE 04:27:05 16° SE 04:27:48 10° SE visible
28 Nov -1.0 05:59:54 11° WSW 06:00:38 12° SW 06:01:53 10° SSW visible
29 Nov -1.0 05:12:19 15° S 05:12:19 15° S 05:13:20 10° S visible
